Tracking 31027 objects as of 19-Jul-2025
HD Live streaming from Space Station
objects crossing your sky now

STARLINK-31546

Track STARLINK-31546 now!
10-day predictions


NORAD ID: 59470
Int'l Code: 2024-068R
Perigee: 489.6 km
Apogee: 490.8 km
Inclination: 43.0 °
Period: 94.3 minutes
Semi major axis: 6861 km
RCS: Unknown
Launch date: April 10, 2024
Source: United States (US)
Launch site: AIR FORCE EASTERN TEST RANGE (AFETR)
Your satellite tracking list
ABS 3
Track 1 satellite(s)




NASA's NSSDC Master Catalog

Two Line Element Set (TLE):
1 59470U 24068R   25199.27360743  .00002051  00000-0  84037-4 0  9997
2 59470  42.9976 274.7568 0000911 238.1033 121.9730 15.27579653 72714
Source of the keplerian elements: AFSPC